Location: Lourdes
(43.1000°N, 0.0500°W)
Time: 18:26:39
(UTC+00:00)

SKYMED 2 - Pass Details

Date: 30 November 2020
Orbit: 621 x 623 km, 97.9° (Epoch: 23 January)

Event Time Altitude Azimuth Distance (km) Brightness Sun altitude
Exits shadow 17:57:13 12° 20° (NNE) 1,845 5.7 -16.1°
Maximum altitude 18:01:08 63° 101° (E) 699 3.5 -16.8°
Drops below altitude 10° 18:05:25 10° 183° (S) 1,985 6.3 -17.6°
Sets 18:07:37 0° 186° (S) 2,887 7.3 -18.0°
